ATLAS 5 CENTAUR DEB, 44645

Orbit data source: Space-Track

ATLAS 5 CENTAUR DEB, 44645 is space debris in HEO originally from a launch on Wed, 17 Oct 2018 UTC launched from the Air Force Eastern Test Range (AFETR). Debris objects in space refer to the collection of defunct objects orbiting the Earth. Examples of debris include non-operational satellites, rocket bodies, and fragments generated from explosions, collisions, or faulty payload assembly.

Loading next visibility...
ATLAS 5 CENTAUR DEB details
Identifier
44645, 2018-079F
Orbit
HEO
Last TLE update15 hours ago
Origin
Flag of USULA (US)
ManufacturerULA Decatur
MissionSpacecraft
Bus & MotorUnknown
MassUnknown
Launch date (UTC)
2018-10-17 (6 years ago)
Launch vehicleUnknown
Launch site
Air Force Eastern Test Range (AFETR)
Object type
Payload
Rocket body
Debris
Shape & HBRUnknown
Radar Cross SectionRCS unknown

Expand to show TLE details & history

TLE from 15 hours ago
0 ATLAS 5 CENTAUR DEB
1 44645U 18079F   24336.74998682 -.00000076  00000-0  00000-0 0  9993
2 44645  12.8537  68.1668 4635698 253.4319  52.1231  1.89807751 42369
Epoch: 2024-12-01T17:59Z
Definitive object data (Epoch: 2024-12-01T17:59:58.861Z)
Latitude-0°
Longitude86.97311°
Altitude18,566.187 km
Speed4.183 km/s
True Right ascension04h 32m 12s
True Declination0° 00' 00"
Sunlit
Object was in daylight at TLE epoch
Visualization TLE readout
Latitude8.97139°
Longitude130.63712°
Altitude29,970.113 km
Speed2.733 km/s
Apparent Right ascension07h 34m 48s
Apparent Declination2° 55' 26"
Sunlit
Object is in daylight
Visualization observer readout
Local Sidereal Time06:35:59
Azimuth156.421° SSE
Elevation50.682°
Doppler factor1
Orbital elements
Apogee altitude33,952.936 km
Perigee altitude8,404.079 km
Semi-major axis27,556.645 km
Eccentricity0.4635698
Inclination12.8537°
RAAN68.1668°
Arg. of periapsis253.4319°
True anomaly106.54694°
Mean anomaly52.1231°
Eccentric anomaly78.11424°
Mean motion0.47446 °/min
BSTARUnknown
Orbital period758.75 mins
Loading maneuver chart data...

ATLAS 5 CENTAUR DEB Visibility forecast

Observer location: undefined°, undefined

Span
Click to sort rows by Start time (UTC) header in descending order
Start Az.
Max El. time (UTC)
Max El. Az.
Max El.
End time (UTC)
End Az.
471 mins2024-12-02 08:49:41.771Z156.433° SSE2024-12-02 12:30:41.771Z171.779° S40.212°2024-12-02 16:40:41.771Z125.678° SE
105 mins2024-12-03 07:04:41.771Z227.033° WSW2024-12-03 08:49:41.771Z196.933° SSW35.486°2024-12-03 08:49:41.771Z196.933° SSW
|